Welcome to the New NWS' Forecast!
Most changes are behind the scenes, but click here for differences you might notice.
Latest weather observations around

Gadsden, Gadsden Municipal Airport (KGAD)

Using English Units (Switch to International System of Units)
Date/ Time (CST) Wind (mph) Vis. (mi) Weather Sky Cond. Temp (°F) Rel. Humidity Wind Chill (°F) Heat Index (°F) Pressure Precip. (in)
Air Dwpt 6 hour Altimeter (inHg) Sea level (inHg) 1 hr 3 hr 6 hr
Max Min
Nov 18 01:56 ENE 3 10 Mostly Cloudy BKN031 45 44     97% 44   30 30.01      
Nov 18 00:56 Calm 10 Partly Cloudy SCT031 42 42     100%     30.01 30.01      
Nov 17 23:56 Calm 10 Clear CLR 44 43     96%     30.02 30.03      
Nov 17 22:56 Calm 10 Clear CLR 43 42     97%     30.03 30.04      
Notice The following observation data may not be complete
Nov 17 21:56 Calm 8 Clear CLR   43      %     30.05 30.06      
Nov 17 20:56 Calm 9 Clear CLR 44 43     96%     30.05 30.07      
Nov 17 19:56 Calm 10 Clear CLR 43 41     93%     30.06 30.08      
Nov 17 18:56 Calm 10 Clear CLR 44 42     93%     30.06 30.08      
Nov 17 17:56 Calm 10 Clear CLR 48 44     86%     30.07 30.09      
Nov 17 16:56 WSW 3 10 Clear CLR 55 45     69%     30.07 30.08      
Nov 17 15:56 Calm 10 Clear CLR 66 39     37%     30.06 30.07      
Nov 17 14:56 SSE 5 10 Clear CLR 67 35     31%     30.06 30.07      
Nov 17 13:56 ESE 3 10 Clear CLR 66 39     37%     30.08 30.09      
Nov 17 12:56 E 3 10 Clear CLR 65 39     38%     30.1 30.11      
Nov 17 11:56 ESE 5 10 Clear CLR 63 43     48%     30.13 30.14      
Nov 17 10:56 E 5 10 Clear CLR 58 43     57%     30.17 30.18      
Nov 17 09:56 ENE 7 10 Clear CLR 54 43     66%     30.2 30.22      
Nov 17 08:56 ENE 3 10 Clear CLR 49 43     80% 48   30.22 30.23      
Nov 17 07:56 N 5 10 Clear CLR 41 40     96% 38   30.22 30.24      
Nov 17 06:56 Calm 10 Clear CLR 32 32     100%     30.21 30.23      
Nov 17 05:56 Calm 10 Clear CLR 32 32     100%     30.19 30.21      
Nov 17 04:56 Calm 10 Clear CLR 33 33     100%     30.17 30.19      
Nov 17 03:56 Calm 10 Clear CLR 34 34     100%     30.16 30.17      
Nov 17 02:56 Calm 10 Clear CLR 34 34     100%     30.16 30.17      
Nov 17 01:56 Calm 10 Clear CLR 34 34     100%     30.17 30.19      
Nov 17 00:56 Calm 10 Clear CLR 36 36     100%     30.16 30.18      
Nov 16 23:56 Calm 10 Clear CLR 37 37     100%     30.18 30.19      
Nov 16 22:56 Calm 10 Clear CLR 39 39     100%     30.17 30.19      
Nov 16 21:56 Calm 10 Clear CLR 39 39     100%     30.17 30.19      
Nov 16 20:56 Calm 10 Clear CLR 40 40     100%     30.17 30.18      
Nov 16 19:56 Calm 10 Clear CLR 42 41     96%     30.15 30.17      
Nov 16 18:56 Calm 10 Clear CLR 46 44     93%     30.14 30.16      
Nov 16 17:56 Calm 10 Clear CLR 49 44     83%     30.14 30.16      
Nov 16 16:56 NNW 3 10 Clear CLR 58 42     55%     30.13 30.14      
Nov 16 15:56 N 7 10 Clear CLR 62 43     50%     30.12 30.12      
Nov 16 14:56 N 9 10 Clear CLR 66 44     45%     30.12 30.12      
Nov 16 13:56 NNW 9 10 Clear CLR 65 46     50%     30.11 30.12      
Nov 16 12:56 NNW 6 10 Clear CLR 66 50     56%     30.12 30.12      
Nov 16 11:56 7 10 Clear CLR 65 50     58%     30.13 30.14      
Nov 16 10:56 3 10 Mostly Clear FEW032 64 51     63%     30.16 30.17      
Nov 16 10:35 6 10 Partly Cloudy SCT028 63 52     68%     30.17        
Nov 16 09:56 Calm 10 Mostly Cloudy BKN026 61 52     72%     30.18 30.19      
Nov 16 09:53 5 10 Mostly Cloudy BKN028 61 52     72%     30.18        
Nov 16 08:56 N 5 10 Cloudy FEW016 OVC034 58 53     84%     30.18 30.19      
Nov 16 07:56 W 3 10 Cloudy OVC036 57 53     87%     30.17 30.18      
Nov 16 07:30 NW 3 10 Cloudy SCT026 OVC034 55 54     94%     30.16        
Nov 16 06:56 Calm 10 Cloudy OVC023 53 53     100%     30.16 30.17      
Nov 16 05:56 Calm 10 Cloudy OVC023 54 52     93%     30.14 30.15      
Nov 16 04:56 Calm 10 Cloudy OVC023 53 51     93%     30.13 30.14      
Nov 16 03:56 Calm 10 Cloudy OVC027 53 51     93%     30.12 30.13      
Nov 16 02:56 Calm 10 Cloudy OVC029 52 51     97%     30.12 30.13      
Nov 16 02:44 Calm 10 Cloudy OVC029 52 52     100%     30.12        
Nov 16 01:56 Calm 10 Cloudy OVC031 51 51     100%     30.12 30.13      
Nov 16 00:56 Calm 10 Cloudy OVC035 52 51     97%     30.12 30.12      
Nov 15 23:56 Calm 10 Cloudy BKN037 OVC060 53 52     96%     30.12 30.13     0
Nov 15 22:56 Calm 10 Cloudy OVC041 53 51     93%     30.12 30.13      
Nov 15 21:56 Calm 10 Cloudy BKN041 OVC055 53 52     96%     30.13 30.14      
Nov 15 20:56 Calm 10 Cloudy BKN047 OVC055 53 51     93%     30.13 30.14 0 0  
Nov 15 19:56 Calm 10 Light Rain OVC060 53 50     89%     30.12 30.13 0    
Nov 15 18:56 Calm 10 Mostly Cloudy BKN095 52 49     89%     30.12 30.13      
Nov 15 17:56 Calm 10 Mostly Cloudy SCT090 BKN120 54 48     80%     30.11 30.13      
Nov 15 16:56 Calm 10 Cloudy BKN075 OVC085 57 48     72%     30.11 30.11      
Nov 15 15:56 Calm 10 Mostly Cloudy BKN080 60 45     57%     30.1 30.11      
Nov 15 14:56 SW 6 10 Cloudy OVC120 61 45     56%     30.08 30.09      
Nov 15 13:56 SW 6 10 Clear CLR 62 44     52%     30.1 30.12      
Nov 15 12:56 SE 6 10 Mostly Cloudy BKN120 60 44     55%     30.11 30.12      
Nov 15 11:56 5 10 Clear CLR 59 43     55%     30.14 30.15      
Nov 15 10:56 S 6 10 Clear CLR 56 42     60%     30.17 30.18      
Nov 15 09:56 S 7 10 Clear CLR 54 43     66%     30.2 30.21      
Nov 15 08:56 SSE 3 10 Clear CLR 51 45     79%     30.21 30.22      
Nov 15 07:56 Calm 8 Clear CLR 45 44     97%     30.22 30.24      
Nov 15 06:56 Calm 8 Clear CLR 37 37     100%     30.21 30.23      
Nov 15 06:31 Calm 3 Fog/Mist CLR 36 36     100%     30.21        
Nov 15 06:25 Calm 1.25 Fog/Mist CLR 36 36     100%     30.21        
Nov 15 06:14 SSW 3 0.75 Fog/Mist CLR 36 36     100% 33   30.21        
Nov 15 06:12 SSW 3 1.5 Fog/Mist CLR 36 36     100% 33   30.21        
Nov 15 06:04 Calm 3 Fog/Mist CLR 36 36     100%     30.21        
Nov 15 05:56 Calm 2 Fog/Mist CLR 35 35     100%     30.21 30.23      
Nov 15 05:47 Calm 1.75 Fog/Mist CLR 36 36     100%     30.21        
Nov 15 04:56 Calm 5 Fog/Mist CLR 40 40     100%     30.19 30.2      
Nov 15 03:56 Calm 8 Clear CLR 38 38     100%     30.18 30.2      
Nov 15 02:56 Calm 10 Clear CLR 36 36     100%     30.19 30.21      
Nov 15 02:17 Calm 8 Clear CLR 37 37     100%     30.19        
Nov 15 02:10 Calm 2.5 Fog/Mist CLR 37 37     100%     30.2        
Jun 12 04:56 Calm 10 Mostly Cloudy FEW028 BKN034 70 69     97%     30.15 30.18      
Jun 11 10:20 Calm 10 Mostly Cloudy BKN021 81 72     74%   85 30.18        
Jun 10 21:56 Calm 10 Clear   70 64     81%     30.11 30.14      
Jun 10 20:56 Calm 10 Clear CLR 74 64     71%   74 30.08 30.11      
Jun 10 03:56 Calm 10 Mostly Clear FEW070 60 60     100%     30.02 30.05      
Jun 08 22:56 Calm 10 Mostly Clear FEW060 62 60     93%     29.93 29.97      
Jun 07 18:56 N 9 10 Clear CLR 77 55     47%   77 29.85 29.89      
Jun 07 15:56 NNE 14 10 Clear CLR 82 54     38%   81 29.83 29.86      
Jun 07 13:56 N 10 10 Clear CLR 81 60     49%   82 29.83 29.87      
Jun 07 11:56 NE 10 10 Clear CLR 78 62     58%   78 29.85        
Jun 06 04:23 Calm 7 Partly Cloudy SCT003 70 70     100%     29.8        
Jun 05 23:56 Calm 10 Light Rain CLR 71 70     96%   72 29.84 29.86 0